THOR 5

Last updated on Tue Oct 08 2024 00:02:38 GMT+0000 (Coordinated Universal Time)

1 32487U 08006A 24281.58658433 .00000002 00000+0 00000+0 0 9997 2 32487 0.0175 235.7430 0002392 326.5195 24.8885 1.00272260 61125
UTC large
Height (km)
Speed (km/s)
/
Latitude / Longitude
Inclination (degrees)
Orbital Period (minutes)
Azimuth
Elevation
Range (km)
Doppler Factor

Next 0 passes for location: London (51.5072 / 0.1276)

Sorry there are no passes over London.